Location: El Corozo
(10.5833°N, 66.9667°W)
Time: 12:49:26
(UTC+00:00)

NOSS 3-2 (A) - Pass Details

Date: 23 May 2024
Orbit: 700 x 1506 km, 63.4° (Epoch: 22 June)

Event Time Altitude Azimuth Distance (km) Brightness Sun altitude
Exits shadow 08:53:35 - 183° (S) 2,625 5.5 -16.9°
Reaches altitude 10° 08:54:49 10° 177° (S) 2,169 5.1 -16.6°
Maximum altitude 08:59:11 34° 112° (ESE) 1,132 4.3 -15.7°
Drops below altitude 10° 09:03:38 10° 47° (NE) 2,210 6.6 -14.7°
Sets 09:06:14 0° 38° (NE) 3,192 7.4 -14.1°
